GW6025 Weather Reports


time (UTC)temp
C
wind
direction
speed
KPH
gust
KPH
rain 1hr
cm
rain 24hr
cm
rain mn
cm
humidity
%
barometer
mb
20260906065927 26 169 0.0 0.0 0.00 0.00 0.00 86 1008.5
20260906065426 26 166 0.0 0.0 0.00 0.00 0.00 87 1008.3
20260906064922 26 163 0.0 0.0 0.00 0.00 0.00 86 1008.3
20260906064418 26 163 0.0 0.0 0.00 0.00 0.00 87 1008.3
20260906063918 26 163 0.0 0.0 0.00 0.00 0.00 87 1008.2
20260906063413 26 163 0.0 0.0 0.00 0.00 0.00 88 1008.4
20260906062908 26 163 0.0 0.0 0.00 0.00 0.00 87 1008.5
20260906062408 26 163 0.0 0.0 0.00 0.00 0.00 86 1008.5
20260906061903 26 163 0.0 0.0 0.00 0.00 0.00 85 1008.4
20260906061400 26 163 0.0 0.0 0.00 0.00 0.00 85 1008.5
20260906060854 26 163 0.0 0.0 0.00 0.00 0.00 85 1008.6
20260906060352 26 163 0.0 0.0 0.00 0.00 0.00 84 1008.6
20260906055847 26 163 0.0 0.0 0.00 0.00 0.00 83 1008.5
20260906055343 26 163 0.0 0.0 0.00 0.00 0.00 83 1008.7
20260906054838 26 163 0.0 0.0 0.00 0.00 0.00 84 1008.5
20260906054333 26 163 0.0 0.0 0.00 0.00 0.00 84 1008.7
20260906053829 26 163 0.0 0.0 0.00 0.00 0.00 83 1008.7
20260906053325 26 163 0.0 0.0 0.00 0.00 0.00 83 1008.8
20260906052820 26 163 0.0 0.0 0.00 0.00 0.00 83 1008.5
20260906052316 26 163 0.0 0.0 0.00 0.00 0.00 83 1008.7
20260906051813 27 163 0.0 0.0 0.00 0.00 0.00 83 1008.6
20260906051313 27 164 0.0 0.0 0.00 0.00 0.00 82 1008.6
20260906050808 27 163 0.0 0.0 0.00 0.00 0.00 84 1008.4
20260906050303 27 163 0.0 0.0 0.00 0.00 0.00 85 1008.5
20260906045802 27 163 0.0 0.0 0.00 0.00 0.00 85 1008.5
20260906045256 27 163 0.0 0.0 0.00 0.00 0.00 84 1008.5
20260906044753 27 163 0.0 0.0 0.00 0.00 0.00 83 1008.6
20260906044247 27 163 0.0 0.0 0.00 0.00 0.00 82 1008.6
20260906043743 27 163 0.0 0.0 0.00 0.00 0.00 81 1008.6
20260906043239 27 163 0.0 0.0 0.00 0.00 0.00 81 1008.4
20260906042739 27 163 0.0 0.0 0.00 0.00 0.00 82 1008.4
20260906042238 27 163 0.0 0.0 0.00 0.00 0.00 82 1008.4
20260906041733 27 163 0.0 0.0 0.00 0.00 0.00 82 1008.5
20260906041228 27 163 0.0 0.0 0.00 0.00 0.00 82 1008.6
20260906040724 27 163 0.0 0.0 0.00 0.00 0.00 83 1008.3
20260906040219 27 163 0.0 0.0 0.00 0.00 0.00 83 1008.3
20260906035715 27 163 0.0 0.0 0.00 0.00 0.00 83 1008.5
20260906035211 27 163 0.0 0.0 0.00 0.00 0.00 82 1008.5
20260906034710 27 163 0.0 0.0 0.00 0.00 0.00 82 1008.6
20260906034205 27 163 0.0 0.0 0.00 0.00 0.00 82 1008.4
20260906033701 28 163 0.0 0.0 0.00 0.00 0.00 79 1008.6
20260906033200 28 163 0.0 0.0 0.00 0.00 0.00 77 1008.5
20260906032657 28 163 0.0 0.0 0.00 0.00 0.00 76 1008.5
20260906032152 28 163 0.0 0.0 0.00 0.00 0.00 76 1008.5
20260906031647 28 163 0.0 0.0 0.00 0.00 0.00 75 1008.5
20260906031143 28 163 0.0 0.0 0.00 0.00 0.00 75 1008.3
20260906030642 28 163 0.0 0.0 0.00 0.00 0.00 76 1008.4
20260906030137 28 163 0.0 0.0 0.00 0.00 0.00 76 1008.3
20260906025637 28 163 0.0 0.0 0.00 0.00 0.00 74 1008.5
20260906025136 28 163 0.0 0.0 0.00 0.00 0.00 74 1008.6
20260906024630 28 163 0.0 0.0 0.00 0.00 0.00 73 1008.5
20260906024124 29 163 0.0 0.0 0.00 0.00 0.00 72 1008.5
20260906023621 29 163 0.0 0.0 0.00 0.00 0.00 72 1008.5
20260906023120 29 163 0.0 0.0 0.00 0.00 0.00 72 1008.2
20260906022615 29 163 0.0 0.0 0.00 0.00 0.00 73 1008.2
20260906022111 29 163 0.0 0.0 0.00 0.00 0.00 72 1008.4
20260906021607 29 163 0.0 0.0 0.00 0.00 0.00 72 1008.3
20260906021106 29 163 0.0 0.0 0.00 0.00 0.00 72 1008.4
20260906020605 29 163 0.0 0.0 0.00 0.00 0.00 72 1008.2
20260906020100 30 163 0.0 0.0 0.00 0.00 0.00 71 1008.1
20260906015600 30 163 0.0 0.0 0.00 0.00 0.00 70 1007.7
20260906015059 30 162 0.0 0.0 0.00 0.00 0.00 71 1008.0
20260906014554 30 162 0.0 0.0 0.00 0.00 0.00 71 1008.2
20260906014050 30 162 0.0 0.0 0.00 0.00 0.00 71 1007.9
20260906013545 30 162 0.0 0.0 0.00 0.00 0.00 71 1007.9
20260906013040 30 162 0.0 0.0 0.00 0.00 0.00 71 1007.8
20260906012535 30 162 0.0 0.0 0.00 0.00 0.00 69 1007.7
20260906012035 30 162 0.0 0.0 0.00 0.00 0.00 67 1007.5
20260906011531 31 162 0.0 0.0 0.00 0.00 0.00 67 1007.6
20260906011031 31 163 0.0 0.0 0.00 0.00 0.00 68 1007.4
20260906010526 31 163 0.0 0.0 0.00 0.00 0.00 68 1007.5
20260906010023 31 163 0.0 0.0 0.00 0.00 0.00 67 1007.4
20260906005521 31 163 0.0 0.0 0.00 0.00 0.00 67 1007.5
20260906005020 32 163 0.0 0.0 0.00 0.00 0.00 65 1007.3
20260906004515 32 163 0.0 0.0 0.00 0.00 0.00 62 1007.4
20260906004010 32 162 0.0 0.0 0.00 0.00 0.00 61 1007.5
20260906003505 33 162 0.0 0.0 0.00 0.00 0.00 60 1007.4
20260906003001 33 162 0.0 0.0 0.00 0.00 0.00 58 1007.3
20260906002500 33 162 0.0 0.0 0.00 0.00 0.00 57 1007.3
20260906001955 33 162 0.0 0.0 0.00 0.00 0.00 55 1007.4
20260906001451 34 162 0.0 0.0 0.00 0.00 0.00 52 1007.5
20260906000945 35 162 0.0 0.0 0.00 0.00 0.00 52 1007.4
20260906000441 35 162 0.0 0.0 0.00 0.00 0.00 51 1007.3
20260905235936 35 162 0.0 0.0 0.00 0.00 0.00 49 1007.5
20260905235436 35 162 0.0 0.0 0.00 0.00 0.00 49 1007.3
20260905234931 35 162 0.0 0.0 0.00 0.00 0.00 48 1007.4
20260905234426 36 162 0.0 0.0 0.00 0.00 0.00 48 1007.5
20260905233920 36 162 0.0 0.0 0.00 0.00 0.00 47 1007.6
20260905233416 36 171 0.0 0.0 0.00 0.00 0.00 47 1007.4
20260905232915 36 166 0.0 0.0 0.00 0.00 0.00 47 1007.6
20260905232411 36 164 0.0 1.6 0.00 0.00 0.00 47 1007.6
20260905231906 37 167 0.0 1.6 0.00 0.00 0.00 46 1007.5
20260905231402 37 171 0.0 0.0 0.00 0.00 0.00 46 1007.7
20260905230859 37 164 0.0 1.6 0.00 0.00 0.00 45 1007.5
20260905230356 38 179 0.0 1.6 0.00 0.00 0.00 44 1007.6
20260905225855 38 175 1.6 1.6 0.00 0.00 0.00 43 1007.7
20260905225350 38 180 0.0 1.6 0.00 0.00 0.00 42 1007.5
20260905224845 38 177 0.0 1.6 0.00 0.00 0.00 43 1007.6
20260905224341 37 181 0.0 1.6 0.00 0.00 0.00 44 1007.4
20260905223836 37 181 1.6 3.2 0.00 0.00 0.00 44 1007.5
20260905223334 37 165 0.0 4.8 0.00 0.00 0.00 45 1007.4
20260905222828 37 165 1.6 3.2 0.00 0.00 0.00 44 1007.4
20260905222327 38 150 1.6 9.7 0.00 0.00 0.00 43 1007.5
20260905221818 38 177 0.0 3.2 0.00 0.00 0.00 44 1007.5
20260905221314 39 175 1.6 4.8 0.00 0.00 0.00 43 1007.5
20260905220810 39 184 0.0 1.6 0.00 0.00 0.00 42 1007.7
20260905220306 39 170 0.0 3.2 0.00 0.00 0.00 42 1007.7
20260905215805 39 201 1.6 3.2 0.00 0.00 0.00 42 1007.7
20260905215301 39 177 0.0 3.2 0.00 0.00 0.00 43 1007.6
20260905214756 39 176 0.0 4.8 0.00 0.00 0.00 42 1007.7
20260905214252 39 140 3.2 4.8 0.00 0.00 0.00 41 1007.6
20260905213747 39 237 3.2 4.8 0.00 0.00 0.00 40 1007.4
20260905213243 40 338 3.2 4.8 0.00 0.00 0.00 38 1007.5
20260905212738 40 192 1.6 3.2 0.00 0.00 0.00 37 1007.5
20260905212237 39 178 0.0 3.2 0.00 0.00 0.00 38 1007.6
20260905211737 39 145 1.6 1.6 0.00 0.00 0.00 39 1007.9
20260905211232 39 303 4.8 6.4 0.00 0.00 0.00 38 1007.6
20260905210729 39 161 0.0 4.8 0.00 0.00 0.00 40 1007.8
20260905210228 40 139 3.2 6.4 0.00 0.00 0.00 37 1007.9
20260905205727 40 181 1.6 3.2 0.00 0.00 0.00 40 1008.0
20260905205222 40 135 1.6 3.2 0.00 0.00 0.00 39 1007.9
20260905204722 40 174 0.0 4.8 0.00 0.00 0.00 39 1008.1
20260905204217 40 191 3.2 6.4 0.00 0.00 0.00 38 1008.1
20260905203711 40 164 1.6 1.6 0.00 0.00 0.00 39 1008.1
20260905203207 40 162 1.6 3.2 0.00 0.00 0.00 40 1008.4
20260905202703 38 192 3.2 3.2 0.00 0.00 0.00 40 1008.3
20260905202157 38 174 1.6 3.2 0.00 0.00 0.00 42 1008.6
20260905201653 38 174 0.0 6.4 0.00 0.00 0.00 42 1008.5
20260905201153 38 170 4.8 9.7 0.00 0.00 0.00 40 1008.5
20260905200648 40 153 3.2 9.7 0.00 0.00 0.00 40 1008.5
20260905200144 40 154 0.0 6.4 0.00 0.00 0.00 39 1008.5
20260905195642 40 208 0.0 3.2 0.00 0.00 0.00 39 1008.6
20260905195137 40 185 1.6 9.7 0.00 0.00 0.00 39 1008.7
20260905194632 39 223 3.2 6.4 0.00 0.00 0.00 39 1008.8
20260905194131 38 312 6.4 11.3 0.00 0.00 0.00 39 1008.9
20260905193627 40 178 6.4 12.9 0.00 0.00 0.00 40 1009.0
20260905193127 40 191 1.6 9.7 0.00 0.00 0.00 41 1009.1
20260905192622 39 156 0.0 3.2 0.00 0.00 0.00 42 1009.1
20260905192119 37 161 1.6 3.2 0.00 0.00 0.00 41 1009.2
20260905191618 38 147 1.6 3.2 0.00 0.00 0.00 41 1009.2
20260905191116 39 140 1.6 3.2 0.00 0.00 0.00 40 1009.5
20260905190614 39 177 1.6 6.4 0.00 0.00 0.00 38 1009.3
20260905190109 40 38 4.8 6.4 0.00 0.00 0.00 38 1009.3
20260905185608 40 157 0.0 6.4 0.00 0.00 0.00 39 1009.4
20260905185108 40 345 8.0 11.3 0.00 0.00 0.00 37 1009.5
20260905184602 40 11 9.7 14.5 0.00 0.00 0.00 38 1009.6
20260905184101 40 144 3.2 4.8 0.00 0.00 0.00 40 1009.7
20260905183601 39 26 6.4 9.7 0.00 0.00 0.00 40 1009.7
20260905183057 39 142 4.8 6.4 0.00 0.00 0.00 42 1009.6
20260905182556 39 130 0.0 4.8 0.00 0.00 0.00 42 1009.7
20260905182051 38 18 3.2 4.8 0.00 0.00 0.00 42 1009.8
20260905181551 38 140 4.8 6.4 0.00 0.00 0.00 43 1009.7
20260905181050 39 325 4.8 9.7 0.00 0.00 0.00 42 1009.7
20260905180544 38 145 1.6 4.8 0.00 0.00 0.00 44 1009.9
20260905180040 39 200 1.6 4.8 0.00 0.00 0.00 42 1010.0
20260905175539 39 179 1.6 6.4 0.00 0.00 0.00 41 1010.0
20260905175035 38 175 0.0 3.2 0.00 0.00 0.00 45 1010.2
20260905174530 38 167 0.0 4.8 0.00 0.00 0.00 47 1010.2
20260905174026 37 353 4.8 6.4 0.00 0.00 0.00 43 1010.2
20260905173522 38 231 3.2 4.8 0.00 0.00 0.00 44 1010.0
20260905173017 39 352 4.8 6.4 0.00 0.00 0.00 42 1010.0
20260905172515 38 4 6.4 9.7 0.00 0.00 0.00 42 1010.1
20260905172011 38 204 3.2 4.8 0.00 0.00 0.00 44 1010.4
20260905171508 37 309 4.8 4.8 0.00 0.00 0.00 45 1010.5
20260905171003 37 76 4.8 9.7 0.00 0.00 0.00 46 1010.5
20260905170500 38 20 6.4 6.4 0.00 0.00 0.00 45 1010.5
20260905165959 37 153 0.0 6.4 0.00 0.00 0.00 48 1010.3
20260905165454 37 173 1.6 1.6 0.00 0.00 0.00 48 1010.6
20260905164949 36 14 8.0 9.7 0.00 0.00 0.00 48 1010.6
20260905164443 37 14 6.4 11.3 0.00 0.00 0.00 47 1010.6
20260905163938 37 348 6.4 12.9 0.00 0.00 0.00 47 1010.9
20260905163435 37 192 4.8 6.4 0.00 0.00 0.00 50 1011.0
20260905162931 36 155 1.6 3.2 0.00 0.00 0.00 53 1011.0
20260905162426 36 162 3.2 6.4 0.00 0.00 0.00 51 1011.1
20260905161921 36 341 3.2 6.4 0.00 0.00 0.00 52 1011.1
20260905161420 36 165 4.8 6.4 0.00 0.00 0.00 51 1011.1
20260905160918 35 146 0.0 3.2 0.00 0.00 0.00 55 1011.1
20260905160412 35 321 3.2 4.8 0.00 0.00 0.00 54 1011.2
20260905155912 35 174 3.2 4.8 0.00 0.00 0.00 54 1011.3
20260905155412 35 235 1.6 3.2 0.00 0.00 0.00 54 1011.4
20260905154910 35 141 1.6 4.8 0.00 0.00 0.00 55 1011.3
20260905154407 35 245 1.6 6.4 0.00 0.00 0.00 53 1011.3
20260905153902 35 149 0.0 0.0 0.00 0.00 0.00 53 1011.2
20260905153358 34 160 1.6 1.6 0.00 0.00 0.00 57 1011.4
20260905152858 34 98 4.8 4.8 0.00 0.00 0.00 57 1011.2
20260905152357 33 165 1.6 3.2 0.00 0.00 0.00 60 1011.4
20260905151853 33 242 3.2 4.8 0.00 0.00 0.00 60 1011.4
20260905151349 33 145 1.6 4.8 0.00 0.00 0.00 63 1011.2
20260905150848 33 190 3.2 4.8 0.00 0.00 0.00 61 1011.4
20260905150343 32 127 3.2 3.2 0.00 0.00 0.00 62 1011.3
20260905145840 32 158 0.0 1.6 0.00 0.00 0.00 63 1011.4
20260905145340 32 334 3.2 4.8 0.00 0.00 0.00 63 1011.4
20260905144839 31 175 0.0 1.6 0.00 0.00 0.00 67 1011.3
20260905144335 31 299 3.2 4.8 0.00 0.00 0.00 67 1011.1
20260905143833 30 193 1.6 4.8 0.00 0.00 0.00 68 1011.2
20260905143328 30 168 0.0 3.2 0.00 0.00 0.00 68 1011.3
20260905142827 30 171 0.0 3.2 0.00 0.00 0.00 68 1011.2
20260905142321 30 258 3.2 4.8 0.00 0.00 0.00 68 1011.4
20260905141818 30 220 3.2 4.8 0.00 0.00 0.00 68 1011.5
20260905141313 30 348 3.2 4.8 0.00 0.00 0.00 67 1011.3
20260905140809 30 177 0.0 1.6 0.00 0.00 0.00 68 1011.2
20260905140308 30 187 1.6 3.2 0.00 0.00 0.00 69 1011.1
20260905135807 30 186 0.0 1.6 0.00 0.00 0.00 70 1011.2
20260905135306 30 169 0.0 0.0 0.00 0.00 0.00 70 1011.0
20260905134803 30 179 0.0 1.6 0.00 0.00 0.00 69 1011.2
20260905134302 29 192 1.6 1.6 0.00 0.00 0.00 71 1011.2
20260905133756 29 181 0.0 0.0 0.00 0.00 0.00 71 1011.2
20260905133252 28 181 0.0 0.0 0.00 0.00 0.00 73 1011.0
20260905132751 28 168 0.0 0.0 0.00 0.00 0.00 74 1011.0
20260905132247 28 163 0.0 1.6 0.00 0.00 0.00 74 1011.1
20260905131741 28 167 0.0 0.0 0.00 0.00 0.00 76 1010.9
20260905131237 27 167 0.0 0.0 0.00 0.00 0.00 77 1011.0
20260905130731 27 167 0.0 0.0 0.00 0.00 0.00 79 1011.0
20260905130225 26 161 0.0 0.0 0.00 0.00 0.00 82 1011.0
20260905125721 26 160 0.0 0.0 0.00 0.00 0.00 85 1011.1
20260905125216 26 170 0.0 0.0 0.00 0.00 0.00 86 1011.0
20260905124713 26 170 0.0 0.0 0.00 0.00 0.00 87 1011.0
20260905124208 25 174 0.0 0.0 0.00 0.00 0.00 87 1011.0
20260905123708 25 155 0.0 0.0 0.00 0.00 0.00 87 1011.0
20260905123205 25 156 0.0 0.0 0.00 0.00 0.00 87 1010.6
20260905122704 25 155 0.0 0.0 0.00 0.00 0.00 87 1010.8
20260905122200 25 155 0.0 0.0 0.00 0.00 0.00 88 1010.6
20260905121700 25 155 0.0 0.0 0.00 0.00 0.00 89 1010.9
20260905121156 25 155 0.0 0.0 0.00 0.00 0.00 89 1010.6
20260905120655 24 155 0.0 0.0 0.00 0.00 0.00 89 1010.6
20260905120150 24 155 0.0 0.0 0.00 0.00 0.00 90 1010.4
20260905115649 24 155 0.0 0.0 0.00 0.00 0.00 90 1010.8
20260905115144 24 155 0.0 0.0 0.00 0.00 0.00 90 1010.6
20260905114644 24 155 0.0 0.0 0.00 0.00 0.00 90 1010.4
20260905114142 24 155 0.0 0.0 0.00 0.00 0.00 90 1010.5
20260905113637 24 155 0.0 0.0 0.00 0.00 0.00 90 1010.3
20260905113133 24 155 0.0 0.0 0.00 0.00 0.00 90 1010.5
20260905112627 24 155 0.0 0.0 0.00 0.00 0.00 90 1010.4
20260905112124 24 155 0.0 0.0 0.00 0.00 0.00 90 1010.3
20260905111623 24 155 0.0 0.0 0.00 0.00 0.00 90 1010.4
20260905111122 24 155 0.0 0.0 0.00 0.00 0.00 91 1010.2
20260905110622 24 155 0.0 0.0 0.00 0.00 0.00 91 1010.2
20260905110117 24 155 0.0 0.0 0.00 0.00 0.00 91 1010.2
20260905105612 24 155 0.0 0.0 0.00 0.00 0.00 91 1010.2
20260905105111 24 155 0.0 0.0 0.00 0.00 0.00 91 1010.3
20260905104607 24 155 0.0 0.0 0.00 0.00 0.00 90 1010.2
20260905104106 24 155 0.0 0.0 0.00 0.00 0.00 90 1010.2
20260905103556 24 155 0.0 0.0 0.00 0.00 0.00 91 1010.3
20260905103052 24 155 0.0 0.0 0.00 0.00 0.00 91 1010.0
20260905102547 24 155 0.0 0.0 0.00 0.00 0.00 91 1010.0
20260905102044 24 155 0.0 0.0 0.00 0.00 0.00 91 1010.0
20260905101542 25 155 0.0 0.0 0.00 0.00 0.00 91 1010.1
20260905101041 25 155 0.0 0.0 0.00 0.00 0.00 91 1010.1
20260905100537 25 155 0.0 0.0 0.00 0.00 0.00 90 1010.0
20260905100037 25 155 0.0 0.0 0.00 0.00 0.00 89 1010.3
20260905095531 25 155 0.0 0.0 0.00 0.00 0.00 89 1010.2
20260905095027 25 155 0.0 0.0 0.00 0.00 0.00 89 1010.0
20260905094522 25 155 0.0 0.0 0.00 0.00 0.00 89 1010.2
20260905094021 25 155 0.0 0.0 0.00 0.00 0.00 88 1010.2
20260905093515 25 155 0.0 0.0 0.00 0.00 0.00 87 1010.0
20260905093012 25 155 0.0 0.0 0.00 0.00 0.00 87 1010.1
20260905092506 25 155 0.0 0.0 0.00 0.00 0.00 87 1010.0
20260905092002 25 155 0.0 0.0 0.00 0.00 0.00 89 1010.0
20260905091501 25 155 0.0 0.0 0.00 0.00 0.00 89 1010.0
20260905090956 25 155 0.0 0.0 0.00 0.00 0.00 88 1010.0
20260905090451 25 155 0.0 0.0 0.00 0.00 0.00 88 1009.9
20260905085950 25 155 0.0 0.0 0.00 0.00 0.00 88 1010.1
20260905085450 25 155 0.0 0.0 0.00 0.00 0.00 87 1010.1
20260905084946 25 155 0.0 0.0 0.00 0.00 0.00 87 1010.0
20260905084445 25 155 0.0 0.0 0.00 0.00 0.00 86 1010.1
20260905083940 25 155 0.0 0.0 0.00 0.00 0.00 86 1009.8
20260905083436 25 155 0.0 0.0 0.00 0.00 0.00 86 1009.9
20260905082931 25 155 0.0 0.0 0.00 0.00 0.00 85 1010.0
20260905082427 25 155 0.0 0.0 0.00 0.00 0.00 85 1010.1
20260905081922 25 155 0.0 0.0 0.00 0.00 0.00 86 1010.0
20260905081417 25 155 0.0 0.0 0.00 0.00 0.00 86 1010.0
20260905080915 25 155 0.0 0.0 0.00 0.00 0.00 86 1010.1
20260905080416 25 155 0.0 0.0 0.00 0.00 0.00 86 1010.0
20260905075914 25 155 0.0 0.0 0.00 0.00 0.00 85 1010.2
20260905075409 25 155 0.0 0.0 0.00 0.00 0.00 85 1010.1
20260905074908 26 155 0.0 0.0 0.00 0.00 0.00 84 1010.1
20260905074404 26 155 0.0 0.0 0.00 0.00 0.00 85 1010.1
20260905073900 26 155 0.0 0.0 0.00 0.00 0.00 85 1010.2
20260905073355 25 155 0.0 0.0 0.00 0.00 0.00 85 1010.1
20260905072850 26 155 0.0 0.0 0.00 0.00 0.00 85 1010.1
20260905072345 26 155 0.0 0.0 0.00 0.00 0.00 86 1010.1
20260905071841 26 155 0.0 0.0 0.00 0.00 0.00 86 1010.3
20260905071338 26 155 0.0 0.0 0.00 0.00 0.00 85 1010.1
20260905070837 26 155 0.0 0.0 0.00 0.00 0.00 84 1010.3
20260905070333 26 155 0.0 0.0 0.00 0.00 0.00 84 1010.2